Regional Weather Roundup
Issued by NWS

Home | Current Version | Previous Version | Graphics & Text | Print | Product List | Glossary On
Versions: 1 2 3 4 5 6 7 8 9 10 11 12 13 14 15 16 17 18 19 20 21 22 23 24 25 26 27 28 29 30 31 32 33 34 35 36 37 38 39 40 41 42 43 44 45 46 47 48 49 50
908
ASUS45 KTFX 271110
RWRMT
MONTANA REGIONAL WEATHER ROUNDUP
NATIONAL WEATHER SERVICE GREAT FALLS MT
500 AM MDT SAT MAY 27 2017

NOTE: "FAIR" INDICATES FEW OR NO CLOUDS BELOW 12000 FEET WITH NO
SIGNIFICANT WEATHER AND/OR OBSTRUCTIONS TO VISIBILITY.

MTZ001>007-043-271200-
WEST OF THE DIVIDE

CITY           SKY/WX    TMP DP  RH WIND       PRES   REMARKS
KALISPELL      CLEAR     39  38  96 CALM      30.06R
MISSOULA       PTCLDY    45  41  86 CALM      30.12R
BUTTE          CLOUDY    42  35  76 SE5       30.15R
MULLAN PASS    MOCLDY    45  31  58 NW6       30.16R
ANACONDA         N/A     48  34  57 CALM      30.13R
DEER LODGE       N/A     43  37  81 CALM      30.15R
EUREKA           N/A     37  34  87 CALM      30.08R
HAMILTON         N/A     48  37  66 S3        30.12R
PLAINS           N/A     41  34  76 CALM      30.09R
$$

MTZ008-052>055-271200-
SOUTHWEST MONTANA

CITY           SKY/WX    TMP DP  RH WIND       PRES   REMARKS
BOZEMAN        CLOUDY    39  35  86 SE7       30.12R
DILLON         CLOUDY    39  32  76 SE6       30.12S
ENNIS          CLOUDY    39  34  81 CALM      30.19R
THREE FORKS      N/A     43  40  89 CALM      30.09R
$$

MTZ009-010-012-014-046-048-049-054-271200-
EAST SLOPES AND CENTRAL MONTANA

CITY           SKY/WX    TMP DP  RH WIND       PRES   REMARKS
CUT BANK       MOCLDY    44  35  70 W14       30.00R
GREAT FALLS    CLEAR     44  36  73 SW12      30.03R
MALMSTROM AFB  CLEAR     45  39  78 SW9       30.02R
HELENA         CLEAR     42  38  85 N5        30.09R
CHOTEAU          N/A     46  36  66 SW9       30.04S
CONRAD           N/A     56  45  66 SW12      30.01S
$$

MTZ011-013-016-021-045-047-050-051-271200-
NORTH CENTRAL MONTANA

CITY           SKY/WX    TMP DP  RH WIND       PRES   REMARKS
HAVRE          CLOUDY    50  38  63 SW18      29.92S
LEWISTOWN      CLEAR     37  31  78 SE5       30.03R
N BAR RANCH      N/A     43  30  61 CALM      30.04S
CHINOOK          N/A     54  37  54 W9        29.91S
FORT BENTON      N/A     46  39  76 CALM      30.00R
$$

MTZ017>020-022>027-061-062-271200-
NORTHEAST MONTANA

CITY           SKY/WX    TMP DP  RH WIND       PRES   REMARKS
GLASGOW        CLOUDY    48  40  73 W5        29.90R
JORDAN           N/A     41  34  76 W5        29.94R
SIDNEY         CLOUDY    53  39  59 W12       29.89S
WOLF POINT     CLOUDY    48  39  71 SW8       29.89S
MALTA          CLOUDY    48  41  76 W9        29.90R
PLENTYWOOD       N/A     46  37  71 NW5       29.85S
POPLAR           N/A     48  39  71 S3        29.89R
SCOBEY           N/A     48  31  52 CALM      29.85S
$$

MTZ028>42-056>058-271200-
SOUTHCENTRAL AND SOUTHEAST MONTANA

CITY           SKY/WX    TMP DP  RH WIND       PRES   REMARKS
BAKER          CLEAR     40  34  79 CALM      29.96R
BILLINGS       PTCLDY    45  36  70 SW18      30.03R
LIVINGSTON     MOCLDY    37  35  92 NW15      30.09S WCI  28
MILES CITY     CLEAR     42  30  62 W6        29.96R
BIG TIMBER     MOCLDY    46  36  66 W17G24    30.09S
EKALAKA          N/A     45  36  70 SW5       29.96R
FORSYTH          N/A     46  37  71 CALM      29.97S
LAUREL           N/A     38  31  76 W1        30.02F
ROUNDUP          N/A     40  34  79 S12       29.93S
$$

REGIONAL REPORTS...DAKOTAS

CITY           SKY/WX    TMP DP  RH WIND       PRES   REMARKS
WILLISTON      CLOUDY    50  40  68 W13       29.87S
MINOT          CLOUDY    52  40  63 SW10      29.80S
DICKINSON      CLEAR     38  33  82 W9        29.89S WCI  31
BEACH          CLOUDY    43  39  87 SW10      29.95S
CROSBY         MOCLDY    48  39  71 SW16      29.82S
TIOGA            N/A     45  45 100 SW7       29.86S
WATFORD CITY     N/A     43  37  81 SW10      29.87S
BISMARCK       CLEAR     45  37  73 W5        29.87F
GRAND FORKS    PTCLDY    51  42  71 SW8       29.77R
FARGO          CLEAR     49  42  77 S8        29.82S
BUFFALO SD       N/A     42  37  82 W7        29.90R
RAPID CITY     CLOUDY    48  45  89 NW6       29.98R
$$

REGIONAL REPORTS...WYOMING/IDAHO/WASHINGTON

CITY           SKY/WX    TMP DP  RH WIND       PRES   REMARKS
GILLETTE       CLOUDY    44  42  93 W10       30.04R
SHERIDAN       PTCLDY    36  32  85 S7        30.05S WCI  30
BUFFALO WY     CLEAR     37  31  78 W8        30.07R WCI  31
CODY           CLOUDY    42  33  70 W5        30.11R
YELLOWSTONE LA   N/A     29  29 100 CALM      30.21R
IDAHO FALLS    CLEAR     35  35 100 CALM      30.17S
SALMON         CLEAR     39  37  93 CALM      30.14R
BOISE          CLEAR     50  40  68 SE8       30.10R
SPOKANE        CLEAR     56  41  57 S5        30.06R
$$

REGIONAL REPORTS...ALBERTA

CITY           SKY/WX    TMP DP  RH WIND       PRES   REMARKS
EDMONTON       CLEAR     50  43  76 SW8       29.85S
CALGARY        PTCLDY    59  30  33 W10G18    29.96R
MEDICINE HAT   CLOUDY    55  41  58 W8        29.88R
WATERTON GATE    N/A     46  34  61 SW10        N/A
MILK RIVER       N/A     48  37  66 W15         N/A
ONEFOUR          N/A     48  37  66 NW13        N/A
$$

REGIONAL REPORTS...SASKATCHEWAN

CITY           SKY/WX    TMP DP  RH WIND       PRES   REMARKS
SWIFT CURRENT  PTCLDY    46  41  81 W12       29.83R
REGINA         PTCLDY    43  39  87 W6        29.78R
SASKATOON      PTCLDY    37  36  93 SW6       29.79R
CYPRESS HILLS    N/A     52  32  46 W7          N/A
VAL MARIE        N/A     45  37  76 SW2         N/A
ROCKGLEN         N/A     43  39  87 W12         N/A
ASSINIBOIA       N/A     50  43  76 W7          N/A
$$




USA.gov is the U.S. government's official web portal to all federal, state and local government web resources and services.